DW7875 Weather Reports


time (UTC)temp
C
wind
direction
speed
KPH
gust
KPH
rain 1hr
cm
rain 24hr
cm
rain mn
cm
humidity
%
barometer
mb
20260504201548 20 141 3.2 8.0 0.00 0.00 0.00 50 1010.5
20260504200053 20 148 3.2 6.4 0.00 0.00 0.00 50 1010.7
20260504194542 20 139 3.2 8.0 0.00 0.00 0.00 50 1010.9
20260504193044 20 131 4.8 11.3 0.00 0.00 0.00 48 1011.1
20260504191542 22 135 3.2 8.0 0.00 0.00 0.00 43 1011.0
20260504190040 23 135 1.6 6.4 0.00 0.00 0.00 43 1011.2
20260504184539 22 145 1.6 6.4 0.00 0.00 0.00 44 1011.3
20260504183036 21 120 0.0 6.4 0.00 0.00 0.00 50 1011.5
20260504181532 21 146 1.6 6.4 0.00 0.00 0.00 48 1012.0
20260504180030 21 139 1.6 8.0 0.00 0.00 0.00 47 1012.2
20260504174527 20 138 1.6 8.0 0.00 0.00 0.00 51 1012.3
20260504173025 20 170 1.6 8.0 0.00 0.00 0.00 48 1012.6
20260504171525 20 143 1.6 8.0 0.00 0.00 0.00 48 1012.7
20260504081512 11 141 3.2 8.0 0.00 0.00 0.00 49 1015.3
20260504044540 7 250 0.0 0.0 0.00 0.00 0.00 57 1015.5
20260504043049 7 250 0.0 0.0 0.00 0.00 0.00 56 1015.6
20260504041536 7 250 0.0 3.2 0.00 0.00 0.00 55 1015.6
20260504040033 7 250 0.0 0.0 0.00 0.00 0.00 55 1015.5
20260504034539 7 250 0.0 0.0 0.00 0.00 0.00 54 1015.4
20260504033032 7 250 0.0 3.2 0.00 0.00 0.00 53 1015.4
20260504031535 7 250 0.0 1.6 0.00 0.00 0.00 54 1015.2
20260504030036 7 250 0.0 1.6 0.00 0.00 0.00 54 1015.1
20260504024535 7 250 0.0 0.0 0.00 0.00 0.00 52 1015.1
20260504023030 7 250 0.0 1.6 0.00 0.00 0.00 52 1015.1
20260504021540 8 250 0.0 0.0 0.00 0.00 0.00 52 1015.1
20260504020036 8 250 0.0 0.0 0.00 0.00 0.00 50 1014.9
20260504014529 8 250 0.0 0.0 0.00 0.00 0.00 48 1015.0
20260504013034 8 250 0.0 0.0 0.00 0.00 0.00 49 1014.9
20260504011528 9 250 0.0 0.0 0.00 0.00 0.00 46 1014.6
20260504010027 10 250 0.0 1.6 0.00 0.00 0.00 46 1014.6
20260504004538 10 250 0.0 0.0 0.00 0.00 0.00 43 1014.6
20260504003026 11 250 0.0 0.0 0.00 0.00 0.00 42 1014.4
20260504001533 12 250 0.0 0.0 0.00 0.00 0.00 39 1014.3
20260504000025 13 250 0.0 3.2 0.00 0.00 0.00 38 1014.3
20260503234527 13 250 0.0 1.6 0.00 0.00 0.00 36 1013.9
20260503233024 14 250 0.0 1.6 0.00 0.00 0.00 31 1013.8
20260503231525 15 250 0.0 3.2 0.00 0.00 0.00 26 1013.8
20260503230026 15 251 0.0 4.8 0.00 0.00 0.00 25 1013.8
20260503224523 16 233 1.6 8.0 0.00 0.00 0.00 24 1013.7
20260503223022 16 354 1.6 6.4 0.00 0.00 0.00 23 1013.7
20260503221522 16 1 1.6 4.8 0.00 0.00 0.00 25 1013.9
20260503220030 16 34 3.2 9.7 0.00 0.00 0.00 22 1013.9
20260503214532 16 30 3.2 8.0 0.00 0.00 0.00 23 1013.9
20260503213030 17 252 1.6 9.7 0.00 0.00 0.00 23 1013.8
20260503211520 17 308 3.2 12.9 0.00 0.00 0.00 24 1013.8
20260503210020 17 265 3.2 9.7 0.00 0.00 0.00 25 1013.7
20260503204525 17 299 4.8 14.5 0.00 0.00 0.00 24 1013.9
20260503203017 17 300 4.8 12.9 0.00 0.00 0.00 25 1014.2